TimeMDT,TemperatureF,Dew PointF,Humidity,Sea Level PressureIn,VisibilityMPH,Wind Direction,Wind SpeedMPH,Gust SpeedMPH,PrecipitationIn,Events,Conditions,WindDirDegrees,DateUTC
12:56 AM,14.0,10.0,84,30.01,10.0,SE,20.7,24.2,N/A,,Overcast,140,2013-03-17 06:56:00
1:56 AM,16.0,12.0,84,29.96,10.0,SE,17.3,-,N/A,,Overcast,140,2013-03-17 07:56:00
2:17 AM,15.8,12.2,86,29.82,10.0,SE,19.6,-,N/A,,Overcast,140,2013-03-17 08:17:00
2:56 AM,16.0,12.0,84,29.92,8.0,SSE,21.9,26.5,N/A,,Overcast,150,2013-03-17 08:56:00
3:56 AM,17.1,14.0,88,29.89,10.0,SSE,19.6,25.3,N/A,,Overcast,150,2013-03-17 09:56:00
4:46 AM,17.6,15.8,93,29.72,6.0,SSE,18.4,-,N/A,,Overcast,150,2013-03-17 10:46:00
4:56 AM,18.0,15.1,88,29.84,6.0,SSE,21.9,28.8,N/A,,Overcast,150,2013-03-17 10:56:00
5:56 AM,17.1,15.1,92,29.81,6.0,SSE,21.9,31.1,N/A,,Overcast,150,2013-03-17 11:56:00
6:56 AM,17.1,15.1,92,29.77,2.5,SSE,24.2,33.4,N/A,,Overcast,150,2013-03-17 12:56:00
7:25 AM,17.6,15.8,93,29.62,1.8,SSE,20.7,32.2,N/A,,Overcast,150,2013-03-17 13:25:00
7:36 AM,17.6,15.8,93,29.61,2.0,SSE,21.9,29.9,N/A,,Overcast,150,2013-03-17 13:36:00
7:56 AM,18.0,16.0,92,29.72,5.0,SSE,24.2,34.5,N/A,,Overcast,150,2013-03-17 13:56:00
8:56 AM,17.1,15.1,92,29.71,7.0,SSE,17.3,34.5,N/A,,Overcast,150,2013-03-17 14:56:00
9:56 AM,19.0,17.1,92,29.65,8.0,SE,20.7,-,N/A,,Overcast,140,2013-03-17 15:56:00
10:56 AM,19.9,18.0,92,29.60,9.0,SE,26.5,33.4,N/A,,Overcast,140,2013-03-17 16:56:00
11:56 AM,21.0,19.0,92,29.59,9.0,SE,18.4,-,N/A,,Overcast,140,2013-03-17 17:56:00
12:56 PM,21.9,19.9,92,29.57,1.2,SSE,15.0,26.5,0.00,Snow,Light Snow,150,2013-03-17 18:56:00
1:04 PM,23.0,21.2,93,29.45,0.5,SE,17.3,-,0.01,Fog-Snow,Snow,140,2013-03-17 19:04:00
1:11 PM,23.0,21.2,93,29.44,2.5,SE,19.6,-,0.01,Snow,Light Snow,140,2013-03-17 19:11:00
1:17 PM,23.0,21.2,93,29.43,8.0,SSE,18.4,-,0.01,,Overcast,150,2013-03-17 19:17:00
1:42 PM,24.8,21.2,86,29.42,7.0,SSE,23.0,27.6,0.01,,Overcast,150,2013-03-17 19:42:00
1:56 PM,24.1,21.9,91,29.51,6.0,SSE,19.6,-,0.01,,Overcast,150,2013-03-17 19:56:00
2:56 PM,26.1,24.1,92,29.48,9.0,SSE,16.1,-,N/A,,Overcast,150,2013-03-17 20:56:00
3:42 PM,28.4,24.8,86,29.38,3.0,SSE,13.8,-,0.00,Snow,Light Snow,160,2013-03-17 21:42:00
3:49 PM,28.4,24.8,86,29.37,2.5,South,12.7,-,0.00,Snow,Light Snow,170,2013-03-17 21:49:00
3:56 PM,28.0,25.0,88,29.47,1.2,SSE,12.7,-,0.00,Snow,Light Snow,160,2013-03-17 21:56:00
4:06 PM,28.4,26.6,93,29.38,0.5,South,11.5,-,0.01,Fog-Snow,Light Snow,170,2013-03-17 22:06:00
4:43 PM,28.4,26.6,93,29.38,1.0,South,8.1,-,0.03,Snow,Light Snow,190,2013-03-17 22:43:00
4:56 PM,28.9,27.0,92,29.49,1.2,SSW,5.8,-,0.03,Snow,Light Snow,210,2013-03-17 22:56:00
5:03 PM,28.4,26.6,93,29.39,0.8,SW,6.9,-,0.00,Snow,Light Snow,230,2013-03-17 23:03:00
5:54 PM,30.2,26.6,86,29.41,1.0,West,10.4,-,0.03,Snow,Light Snow,270,2013-03-17 23:54:00
5:56 PM,30.0,27.0,88,29.50,1.0,West,12.7,-,0.03,Snow,Light Snow,270,2013-03-17 23:56:00
6:05 PM,28.4,26.6,93,29.41,0.8,West,18.4,23.0,0.00,Snow,Light Snow,280,2013-03-18 00:05:00
6:26 PM,28.4,24.8,86,29.43,1.0,WNW,24.2,33.4,0.00,Snow,Light Snow,290,2013-03-18 00:26:00
6:35 PM,26.6,24.8,93,29.44,0.8,WNW,25.3,36.8,0.00,Snow,Light Snow,290,2013-03-18 00:35:00
6:42 PM,26.6,23.0,86,29.44,1.0,WNW,27.6,34.5,0.00,Snow,Light Snow,300,2013-03-18 00:42:00
6:56 PM,26.1,21.9,84,29.56,2.0,WNW,28.8,38.0,0.00,Snow,Light Snow,290,2013-03-18 00:56:00
7:04 PM,24.8,21.2,86,29.47,6.0,WNW,33.4,41.4,0.00,Snow,Light Snow,300,2013-03-18 01:04:00
7:32 PM,23.0,17.6,80,29.50,6.0,WNW,29.9,38.0,0.00,Snow,Light Snow,300,2013-03-18 01:32:00
7:56 PM,21.0,16.0,81,29.62,2.5,WNW,31.1,40.3,0.00,Snow,Light Snow,300,2013-03-18 01:56:00
8:18 PM,17.6,12.2,79,29.54,4.0,WNW,31.1,42.6,0.00,Snow,Light Snow,290,2013-03-18 02:18:00
8:56 PM,12.9,7.0,77,29.70,8.0,WNW,31.1,43.7,0.00,,Overcast,300,2013-03-18 02:56:00
9:56 PM,10.9,3.9,73,29.74,9.0,WNW,28.8,40.3,0.00,,Overcast,300,2013-03-18 03:56:00
10:05 PM,10.4,3.2,73,29.61,10.0,WNW,33.4,40.3,0.00,,Overcast,300,2013-03-18 04:05:00
10:31 PM,10.4,3.2,73,29.64,6.0,WNW,29.9,39.1,0.00,Snow,Light Snow,300,2013-03-18 04:31:00
10:56 PM,9.0,3.0,77,29.78,7.0,WNW,28.8,40.3,0.00,Snow,Light Snow,300,2013-03-18 04:56:00
11:34 PM,8.6,1.4,73,29.67,10.0,WNW,27.6,40.3,0.00,,Overcast,300,2013-03-18 05:34:00
11:56 PM,8.1,1.0,73,29.81,7.0,WNW,26.5,42.6,0.00,,Overcast,300,2013-03-18 05:56:00